Location: Batang Balui
(2.7000°N, 113.7833°E)
Time: 16:05:40
(UTC+00:00)

CZ-4 DEB - Pass Details

Date: 29 November 2023
Orbit: 686 x 830 km, 98.7° (Epoch: 22 February)

Event Time Altitude Azimuth Distance (km) Brightness Sun altitude
Rises 11:54:48 0° 161° (SSE) 3,271 ? -24.6°
Reaches altitude 10° 11:57:12 10° 157° (SSE) 2,319 ? -25.2°
Enters shadow 11:59:24 25° 149° (SSE) 1,491 ? -25.7°
